Year,Month,Day,Hour,Minute,Value (Times are PST for temperature in C)
2016,08,04,00,00,14.90
2016,08,04,00,01,14.80
2016,08,04,00,02,14.80
2016,08,04,00,03,14.80
2016,08,04,00,04,14.80
2016,08,04,00,05,14.70
2016,08,04,00,06,14.70
2016,08,04,00,07,14.70
2016,08,04,00,08,14.70
2016,08,04,00,09,14.60
2016,08,04,00,10,14.60
2016,08,04,00,11,14.60
2016,08,04,00,12,14.60
2016,08,04,00,13,14.60
2016,08,04,00,14,14.60
2016,08,04,00,15,14.60
2016,08,04,00,16,14.50
2016,08,04,00,17,14.50
2016,08,04,00,18,14.50
2016,08,04,00,19,14.50
2016,08,04,00,20,14.40
2016,08,04,00,21,14.40
2016,08,04,00,22,14.40
2016,08,04,00,23,14.40
2016,08,04,00,24,14.40
2016,08,04,00,25,14.40
2016,08,04,00,26,14.40
2016,08,04,00,27,14.30
2016,08,04,00,28,14.30
2016,08,04,00,29,14.30
2016,08,04,00,30,14.30
2016,08,04,00,31,14.30
2016,08,04,00,32,14.30
2016,08,04,00,33,14.30
2016,08,04,00,34,14.30
2016,08,04,00,35,14.20
2016,08,04,00,36,14.20
2016,08,04,00,37,14.20
2016,08,04,00,38,14.20
2016,08,04,00,39,14.20
2016,08,04,00,40,14.20
2016,08,04,00,41,14.10
2016,08,04,00,42,14.10
2016,08,04,00,43,14.10
2016,08,04,00,44,14.10
2016,08,04,00,45,14.10
2016,08,04,00,46,14.10
2016,08,04,00,47,14.10
2016,08,04,00,48,14.10
2016,08,04,00,49,14.00
2016,08,04,00,50,14.00
2016,08,04,00,51,14.00
2016,08,04,00,52,14.00
2016,08,04,00,53,14.10
2016,08,04,00,54,14.10
2016,08,04,00,55,14.10
2016,08,04,00,56,14.10
2016,08,04,00,57,14.10
2016,08,04,00,58,14.10
2016,08,04,00,59,14.10
2016,08,04,01,00,14.10
2016,08,04,01,01,14.10
2016,08,04,01,02,14.10
2016,08,04,01,03,14.00
2016,08,04,01,04,14.00
2016,08,04,01,05,14.00
2016,08,04,01,06,14.00
2016,08,04,01,07,14.00
2016,08,04,01,08,14.00
2016,08,04,01,09,14.00
2016,08,04,01,10,14.00
2016,08,04,01,11,14.10
2016,08,04,01,12,14.10
2016,08,04,01,13,14.10
2016,08,04,01,14,14.10
2016,08,04,01,15,14.10
2016,08,04,01,16,14.10
2016,08,04,01,17,14.10
2016,08,04,01,18,14.10
2016,08,04,01,19,14.10
2016,08,04,01,20,14.10
2016,08,04,01,21,14.10
2016,08,04,01,22,14.10
2016,08,04,01,23,14.20
2016,08,04,01,24,14.20
2016,08,04,01,25,14.20
2016,08,04,01,26,14.20
2016,08,04,01,27,14.20
2016,08,04,01,28,14.30
2016,08,04,01,29,14.30
2016,08,04,01,30,14.30
2016,08,04,01,31,14.30
2016,08,04,01,32,14.30
2016,08,04,01,33,14.30
2016,08,04,01,34,14.30
2016,08,04,01,35,14.30
2016,08,04,01,36,14.30
2016,08,04,01,37,14.30
2016,08,04,01,38,14.30
2016,08,04,01,39,14.20
2016,08,04,01,40,14.20
2016,08,04,01,41,14.20
2016,08,04,01,42,14.20
2016,08,04,01,43,14.20
2016,08,04,01,44,14.20
2016,08,04,01,45,14.10
2016,08,04,01,46,14.10
2016,08,04,01,47,14.10
2016,08,04,01,48,14.10
2016,08,04,01,49,14.10
2016,08,04,01,50,14.10
2016,08,04,01,51,14.10
2016,08,04,01,52,14.10
2016,08,04,01,53,14.10
2016,08,04,01,54,14.10
2016,08,04,01,55,14.00
2016,08,04,01,56,14.00
2016,08,04,01,57,14.00
2016,08,04,01,58,13.90
2016,08,04,01,59,13.90
2016,08,04,02,00,13.90
2016,08,04,02,01,13.90
2016,08,04,02,02,13.90
2016,08,04,02,03,13.80
2016,08,04,02,04,13.80
2016,08,04,02,05,13.80
2016,08,04,02,06,13.80
2016,08,04,02,07,13.80
2016,08,04,02,08,13.80
2016,08,04,02,09,13.80
2016,08,04,02,10,13.70
2016,08,04,02,11,13.70
2016,08,04,02,12,13.70
2016,08,04,02,13,13.70
2016,08,04,02,14,13.70
2016,08,04,02,15,13.70
2016,08,04,02,16,13.70
2016,08,04,02,17,13.70
2016,08,04,02,18,13.70
2016,08,04,02,19,13.70
2016,08,04,02,20,13.70
2016,08,04,02,21,13.70
2016,08,04,02,22,13.60
2016,08,04,02,23,13.60
2016,08,04,02,24,13.60
2016,08,04,02,25,13.60
2016,08,04,02,26,13.60
2016,08,04,02,27,13.60
2016,08,04,02,28,13.60
2016,08,04,02,29,13.60
2016,08,04,02,30,13.50
2016,08,04,02,31,13.50
2016,08,04,02,32,13.50
2016,08,04,02,33,13.50
2016,08,04,02,34,13.50
2016,08,04,02,35,13.40
2016,08,04,02,36,13.40
2016,08,04,02,37,13.40
2016,08,04,02,38,13.40
2016,08,04,02,39,13.40
2016,08,04,02,40,13.40
2016,08,04,02,41,13.40
2016,08,04,02,42,13.40
2016,08,04,02,43,13.40
2016,08,04,02,44,13.40
2016,08,04,02,45,13.40
2016,08,04,02,46,13.40
2016,08,04,02,47,13.30
2016,08,04,02,48,13.30
2016,08,04,02,49,13.30
2016,08,04,02,50,13.30
2016,08,04,02,51,13.30
2016,08,04,02,52,13.30
2016,08,04,02,53,13.30
2016,08,04,02,54,13.30
2016,08,04,02,55,13.30
2016,08,04,02,56,13.20
2016,08,04,02,57,13.20
2016,08,04,02,58,13.20
2016,08,04,02,59,13.20
2016,08,04,03,00,13.20
2016,08,04,03,01,13.20
2016,08,04,03,02,13.20
2016,08,04,03,03,13.20
2016,08,04,03,04,13.20
2016,08,04,03,05,13.30
2016,08,04,03,06,13.30
2016,08,04,03,07,13.30
2016,08,04,03,08,13.30
2016,08,04,03,09,13.30
2016,08,04,03,10,13.30
2016,08,04,03,11,13.30
2016,08,04,03,12,13.20
2016,08,04,03,13,13.20
2016,08,04,03,14,13.20
2016,08,04,03,15,13.20
2016,08,04,03,16,13.20
2016,08,04,03,17,13.20
2016,08,04,03,18,13.20
2016,08,04,03,19,13.20
2016,08,04,03,20,13.10
2016,08,04,03,21,13.10
2016,08,04,03,22,13.10
2016,08,04,03,23,13.10
2016,08,04,03,24,13.10
2016,08,04,03,25,13.00
2016,08,04,03,26,13.00
2016,08,04,03,27,13.00
2016,08,04,03,28,13.00
2016,08,04,03,29,12.90
2016,08,04,03,30,12.90
2016,08,04,03,31,12.90
2016,08,04,03,32,12.90
2016,08,04,03,33,12.90
2016,08,04,03,34,12.80
2016,08,04,03,35,12.80
2016,08,04,03,36,12.80
2016,08,04,03,37,12.80
2016,08,04,03,38,12.90
2016,08,04,03,39,12.90
2016,08,04,03,40,12.90
2016,08,04,03,41,12.90
2016,08,04,03,42,12.90
2016,08,04,03,43,12.90
2016,08,04,03,44,12.80
2016,08,04,03,45,12.80
2016,08,04,03,46,12.80
2016,08,04,03,47,12.80
2016,08,04,03,48,12.80
2016,08,04,03,49,12.80
2016,08,04,03,50,12.80
2016,08,04,03,51,12.80
2016,08,04,03,52,12.80
2016,08,04,03,53,12.80
2016,08,04,03,54,12.80
2016,08,04,03,55,12.80
2016,08,04,03,56,12.80
2016,08,04,03,57,12.80
2016,08,04,03,58,12.80
2016,08,04,03,59,12.90
2016,08,04,04,00,12.90
2016,08,04,04,01,12.90
2016,08,04,04,02,12.90
2016,08,04,04,03,12.90
2016,08,04,04,04,12.80
2016,08,04,04,05,12.80
2016,08,04,04,06,12.90
2016,08,04,04,07,12.90
2016,08,04,04,08,12.90
2016,08,04,04,09,12.90
2016,08,04,04,10,12.90
2016,08,04,04,11,12.80
2016,08,04,04,12,12.80
2016,08,04,04,13,12.80
2016,08,04,04,14,12.80
2016,08,04,04,15,12.80
2016,08,04,04,16,12.80
2016,08,04,04,17,12.80
2016,08,04,04,18,12.80
2016,08,04,04,19,12.80
2016,08,04,04,20,12.80
2016,08,04,04,21,12.80
2016,08,04,04,22,12.80
2016,08,04,04,23,12.80
2016,08,04,04,24,12.90
2016,08,04,04,25,12.90
2016,08,04,04,26,12.90
2016,08,04,04,27,12.90
2016,08,04,04,28,12.90
2016,08,04,04,29,12.90
2016,08,04,04,30,12.90
2016,08,04,04,31,12.90
2016,08,04,04,32,12.90
2016,08,04,04,33,12.90
2016,08,04,04,34,12.80
2016,08,04,04,35,12.80
2016,08,04,04,36,12.80
2016,08,04,04,37,12.80
2016,08,04,04,38,12.80
2016,08,04,04,39,12.80
2016,08,04,04,40,12.80
2016,08,04,04,41,12.80
2016,08,04,04,42,12.80
2016,08,04,04,43,12.80
2016,08,04,04,44,12.80
2016,08,04,04,45,12.80
2016,08,04,04,46,12.80
2016,08,04,04,47,12.70
2016,08,04,04,48,12.80
2016,08,04,04,49,12.80
2016,08,04,04,50,12.80
2016,08,04,04,51,12.70
2016,08,04,04,52,12.70
2016,08,04,04,53,12.70
2016,08,04,04,54,12.70
2016,08,04,04,55,12.70
2016,08,04,04,56,12.70
2016,08,04,04,57,12.70
2016,08,04,04,58,12.70
2016,08,04,04,59,12.70
2016,08,04,05,00,12.70
2016,08,04,05,01,12.70
2016,08,04,05,02,12.70
2016,08,04,05,03,12.70
2016,08,04,05,04,12.70
2016,08,04,05,05,12.70
2016,08,04,05,06,12.70
2016,08,04,05,07,12.70
2016,08,04,05,08,12.70
2016,08,04,05,09,12.70
2016,08,04,05,10,12.70
2016,08,04,05,11,12.70
2016,08,04,05,12,12.70
2016,08,04,05,13,12.70
2016,08,04,05,14,12.70
2016,08,04,05,15,12.70
2016,08,04,05,16,12.70
2016,08,04,05,17,12.60
2016,08,04,05,18,12.60
2016,08,04,05,19,12.60
2016,08,04,05,20,12.60
2016,08,04,05,21,12.60
2016,08,04,05,22,12.60
2016,08,04,05,23,12.60
2016,08,04,05,24,12.50
2016,08,04,05,25,12.50
2016,08,04,05,26,12.50
2016,08,04,05,27,12.50
2016,08,04,05,28,12.50
2016,08,04,05,29,12.50
2016,08,04,05,30,12.50
2016,08,04,05,31,12.50
2016,08,04,05,32,12.50
2016,08,04,05,33,12.50
2016,08,04,05,34,12.50
2016,08,04,05,35,12.50
2016,08,04,05,36,12.50
2016,08,04,05,37,12.50
2016,08,04,05,38,12.50
2016,08,04,05,39,12.60
2016,08,04,05,40,12.60
2016,08,04,05,41,12.60
2016,08,04,05,42,12.60
2016,08,04,05,43,12.60
2016,08,04,05,44,12.60
2016,08,04,05,45,12.60
2016,08,04,05,46,12.60
2016,08,04,05,47,12.60
2016,08,04,05,48,12.60
2016,08,04,05,49,12.60
2016,08,04,05,50,12.60
2016,08,04,05,51,12.60
2016,08,04,05,52,12.60
2016,08,04,05,53,12.60
2016,08,04,05,54,12.50
2016,08,04,05,55,12.50
2016,08,04,05,56,12.50
2016,08,04,05,57,12.50
2016,08,04,05,58,12.50
2016,08,04,05,59,12.50
2016,08,04,06,00,12.50
2016,08,04,06,01,12.40
2016,08,04,06,02,12.40
2016,08,04,06,03,12.40
2016,08,04,06,04,12.40
2016,08,04,06,05,12.40
2016,08,04,06,06,12.40
2016,08,04,06,07,12.40
2016,08,04,06,08,12.30
2016,08,04,06,09,12.30
2016,08,04,06,10,12.30
2016,08,04,06,11,12.30
2016,08,04,06,12,12.40
2016,08,04,06,13,12.40
2016,08,04,06,14,12.40
2016,08,04,06,15,12.40
2016,08,04,06,16,12.50
2016,08,04,06,17,12.50
2016,08,04,06,18,12.50
2016,08,04,06,19,12.60
2016,08,04,06,20,12.60
2016,08,04,06,21,12.70
2016,08,04,06,22,12.70
2016,08,04,06,23,12.70
2016,08,04,06,24,12.80
2016,08,04,06,25,12.80
2016,08,04,06,26,12.80
2016,08,04,06,27,12.80
2016,08,04,06,28,12.90
2016,08,04,06,29,12.90
2016,08,04,06,30,12.90
2016,08,04,06,31,12.90
2016,08,04,06,32,12.90
2016,08,04,06,33,12.90
2016,08,04,06,34,12.90
2016,08,04,06,35,12.90
2016,08,04,06,36,12.90
2016,08,04,06,37,12.80
2016,08,04,06,38,12.80
2016,08,04,06,39,12.80
2016,08,04,06,40,12.80
2016,08,04,06,41,12.80
2016,08,04,06,42,12.80
2016,08,04,06,43,12.80
2016,08,04,06,44,12.80
2016,08,04,06,45,12.80
2016,08,04,06,46,12.80
2016,08,04,06,47,12.80
2016,08,04,06,48,12.80
2016,08,04,06,49,12.90
2016,08,04,06,50,12.90
2016,08,04,06,51,12.90
2016,08,04,06,52,13.00
2016,08,04,06,53,13.00
2016,08,04,06,54,13.00
2016,08,04,06,55,13.10
2016,08,04,06,56,13.10
2016,08,04,06,57,13.10
2016,08,04,06,58,13.20
2016,08,04,06,59,13.20
2016,08,04,07,00,13.20
2016,08,04,07,01,13.30
2016,08,04,07,02,13.30
2016,08,04,07,03,13.40
2016,08,04,07,04,13.40
2016,08,04,07,05,13.50
2016,08,04,07,06,13.60
2016,08,04,07,07,13.60
2016,08,04,07,08,13.70
2016,08,04,07,09,13.80
2016,08,04,07,10,13.90
2016,08,04,07,11,13.90
2016,08,04,07,12,14.00
2016,08,04,07,13,14.10
2016,08,04,07,14,14.20
2016,08,04,07,15,14.30
2016,08,04,07,16,14.40
2016,08,04,07,17,14.50
2016,08,04,07,18,14.60
2016,08,04,07,19,14.60
2016,08,04,07,20,14.70
2016,08,04,07,21,14.70
2016,08,04,07,22,14.70
2016,08,04,07,23,14.80
2016,08,04,07,24,14.80
2016,08,04,07,25,14.90
2016,08,04,07,26,15.00
2016,08,04,07,27,15.00
2016,08,04,07,28,15.00
2016,08,04,07,29,15.00
2016,08,04,07,30,15.00
2016,08,04,07,31,15.00
2016,08,04,07,32,15.00
2016,08,04,07,33,15.20
2016,08,04,07,34,15.20
2016,08,04,07,35,15.30
2016,08,04,07,36,15.30
2016,08,04,07,37,15.30
2016,08,04,07,38,15.30
2016,08,04,07,39,15.40
2016,08,04,07,40,15.40
2016,08,04,07,41,15.40
2016,08,04,07,42,15.50
2016,08,04,07,43,15.50
2016,08,04,07,44,15.60
2016,08,04,07,45,15.70
2016,08,04,07,46,15.80
2016,08,04,07,47,15.90
2016,08,04,07,48,16.00
2016,08,04,07,49,16.10
2016,08,04,07,50,16.30
2016,08,04,07,51,16.40
2016,08,04,07,52,16.60
2016,08,04,07,53,16.70
2016,08,04,07,54,16.90
2016,08,04,07,55,17.00
2016,08,04,07,56,17.10
2016,08,04,07,57,17.20
2016,08,04,07,58,17.30
2016,08,04,07,59,17.30
2016,08,04,08,00,17.40
2016,08,04,08,01,17.40
2016,08,04,08,02,17.40
2016,08,04,08,03,17.40
2016,08,04,08,04,17.50
2016,08,04,08,05,17.50
2016,08,04,08,06,17.60
2016,08,04,08,07,17.60
2016,08,04,08,08,17.60
2016,08,04,08,09,17.70
2016,08,04,08,10,17.70
2016,08,04,08,11,17.80
2016,08,04,08,12,17.80
2016,08,04,08,13,17.90
2016,08,04,08,14,17.90
2016,08,04,08,15,17.90
2016,08,04,08,16,18.00
2016,08,04,08,17,18.00
2016,08,04,08,18,18.10
2016,08,04,08,19,18.10
2016,08,04,08,20,18.10
2016,08,04,08,21,18.00
2016,08,04,08,22,18.00
2016,08,04,08,23,18.00
2016,08,04,08,24,18.00
2016,08,04,08,25,18.00
2016,08,04,08,26,18.00
2016,08,04,08,27,18.10
2016,08,04,08,28,18.10
2016,08,04,08,29,18.10
2016,08,04,08,30,18.10
2016,08,04,08,31,18.10
2016,08,04,08,32,18.00
2016,08,04,08,33,18.00
2016,08,04,08,34,18.00
2016,08,04,08,35,18.00
2016,08,04,08,36,18.00
2016,08,04,08,37,18.00
2016,08,04,08,38,18.00
2016,08,04,08,39,18.10
2016,08,04,08,40,18.10
2016,08,04,08,41,18.20
2016,08,04,08,42,18.20
2016,08,04,08,43,18.30
2016,08,04,08,44,18.30
2016,08,04,08,45,18.40
2016,08,04,08,46,18.40
2016,08,04,08,47,18.40
2016,08,04,08,48,18.40
2016,08,04,08,49,18.30
2016,08,04,08,50,18.30
2016,08,04,08,51,18.30
2016,08,04,08,52,18.30
2016,08,04,08,53,18.30
2016,08,04,08,54,18.30
2016,08,04,08,55,18.30
2016,08,04,08,56,18.30
2016,08,04,08,57,18.30
2016,08,04,08,58,18.30
2016,08,04,08,59,18.30
2016,08,04,09,00,18.30
2016,08,04,09,01,18.30
2016,08,04,09,02,18.30
2016,08,04,09,03,18.30
2016,08,04,09,04,18.40
2016,08,04,09,05,18.40
2016,08,04,09,06,18.50
2016,08,04,09,07,18.50
2016,08,04,09,08,18.60
2016,08,04,09,09,18.70
2016,08,04,09,10,18.80
2016,08,04,09,11,18.80
2016,08,04,09,12,18.90
2016,08,04,09,13,18.90
2016,08,04,09,14,18.90
2016,08,04,09,15,18.90
2016,08,04,09,16,18.90
2016,08,04,09,17,18.90
2016,08,04,09,18,18.80
2016,08,04,09,19,18.80
2016,08,04,09,20,18.80
2016,08,04,09,21,18.90
2016,08,04,09,22,19.00
2016,08,04,09,23,19.00
2016,08,04,09,24,19.00
2016,08,04,09,25,18.90
2016,08,04,09,26,18.90
2016,08,04,09,27,18.90
2016,08,04,09,28,18.90
2016,08,04,09,29,18.90
2016,08,04,09,30,19.00
2016,08,04,09,31,19.00
2016,08,04,09,32,19.00
2016,08,04,09,33,19.10
2016,08,04,09,34,19.10
2016,08,04,09,35,19.00
2016,08,04,09,36,19.00
2016,08,04,09,37,18.90
2016,08,04,09,38,18.90
2016,08,04,09,39,18.90
2016,08,04,09,40,18.90
2016,08,04,09,41,18.80
2016,08,04,09,42,18.80
2016,08,04,09,43,18.80
2016,08,04,09,44,18.80
2016,08,04,09,45,18.70
2016,08,04,09,46,18.70
2016,08,04,09,47,18.80
2016,08,04,09,48,18.70
2016,08,04,09,49,18.70
2016,08,04,09,50,18.70
2016,08,04,09,51,18.70
2016,08,04,09,52,18.70
2016,08,04,09,53,18.70
2016,08,04,09,54,18.70
2016,08,04,09,55,18.70
2016,08,04,09,56,18.80
2016,08,04,09,57,18.80
2016,08,04,09,58,18.80
2016,08,04,09,59,18.90
2016,08,04,10,00,18.90
2016,08,04,10,01,18.90
2016,08,04,10,02,18.90
2016,08,04,10,03,18.90
2016,08,04,10,04,18.90
2016,08,04,10,05,18.90
2016,08,04,10,06,18.90
2016,08,04,10,07,18.90
2016,08,04,10,08,18.90
2016,08,04,10,09,18.80
2016,08,04,10,10,18.80
2016,08,04,10,11,18.80
2016,08,04,10,12,18.80
2016,08,04,10,13,18.80
2016,08,04,10,14,18.80
2016,08,04,10,15,18.80
2016,08,04,10,16,18.80
2016,08,04,10,17,18.90
2016,08,04,10,18,18.90
2016,08,04,10,19,19.00
2016,08,04,10,20,19.20
2016,08,04,10,21,19.30
2016,08,04,10,22,19.50
2016,08,04,10,23,19.60
2016,08,04,10,24,19.70
2016,08,04,10,25,19.70
2016,08,04,10,26,19.80
2016,08,04,10,27,19.80
2016,08,04,10,28,19.80
2016,08,04,10,29,19.90
2016,08,04,10,30,20.00
2016,08,04,10,31,20.00
2016,08,04,10,32,19.90
2016,08,04,10,33,19.90
2016,08,04,10,34,19.90
2016,08,04,10,35,19.80
2016,08,04,10,36,19.80
2016,08,04,10,37,19.80
2016,08,04,10,38,19.80
2016,08,04,10,39,19.80
2016,08,04,10,40,19.80
2016,08,04,10,41,19.80
2016,08,04,10,42,19.80
2016,08,04,10,43,19.80
2016,08,04,10,44,19.80
2016,08,04,10,45,19.80
2016,08,04,10,46,19.80
2016,08,04,10,47,19.90
2016,08,04,10,48,20.00
2016,08,04,10,49,20.00
2016,08,04,10,50,19.90
2016,08,04,10,51,19.90
2016,08,04,10,52,19.90
2016,08,04,10,53,19.80
2016,08,04,10,54,19.80
2016,08,04,10,55,19.70
2016,08,04,10,56,19.70
2016,08,04,10,57,19.70
2016,08,04,10,58,19.80
2016,08,04,10,59,19.80
2016,08,04,11,00,19.80
2016,08,04,11,01,19.80
2016,08,04,11,02,19.70
2016,08,04,11,03,19.70
2016,08,04,11,04,19.70
2016,08,04,11,05,19.60
2016,08,04,11,06,19.70
2016,08,04,11,07,19.70
2016,08,04,11,08,19.80
2016,08,04,11,09,19.80
2016,08,04,11,10,19.90
2016,08,04,11,11,19.90
2016,08,04,11,12,19.90
2016,08,04,11,13,19.90
2016,08,04,11,14,19.90
2016,08,04,11,15,19.90
2016,08,04,11,16,19.90
2016,08,04,11,17,19.90
2016,08,04,11,18,19.80
2016,08,04,11,19,19.80
2016,08,04,11,20,19.90
2016,08,04,11,21,19.90
2016,08,04,11,22,19.90
2016,08,04,11,23,19.90
2016,08,04,11,24,19.90
2016,08,04,11,25,19.90
2016,08,04,11,26,19.90
2016,08,04,11,27,20.00
2016,08,04,11,28,20.00
2016,08,04,11,29,20.10
2016,08,04,11,30,20.10
2016,08,04,11,31,20.10
2016,08,04,11,32,20.00
2016,08,04,11,33,20.00
2016,08,04,11,34,19.90
2016,08,04,11,35,19.80
2016,08,04,11,36,19.80
2016,08,04,11,37,19.70
2016,08,04,11,38,19.80
2016,08,04,11,39,19.80
2016,08,04,11,40,19.90
2016,08,04,11,41,19.80
2016,08,04,11,42,19.80
2016,08,04,11,43,19.80
2016,08,04,11,44,19.80
2016,08,04,11,45,19.80
2016,08,04,11,46,19.80
2016,08,04,11,47,19.90
2016,08,04,11,48,19.90
2016,08,04,11,49,19.90
2016,08,04,11,50,19.90
2016,08,04,11,51,19.90
2016,08,04,11,52,19.90
2016,08,04,11,53,19.90
2016,08,04,11,54,19.90
2016,08,04,11,55,19.90
2016,08,04,11,56,19.90
2016,08,04,11,57,19.90
2016,08,04,11,58,19.90
2016,08,04,11,59,20.00
2016,08,04,12,00,20.00
2016,08,04,12,01,20.00
2016,08,04,12,02,20.00
2016,08,04,12,03,19.90
2016,08,04,12,04,19.90
2016,08,04,12,05,19.80
2016,08,04,12,06,19.80
2016,08,04,12,07,19.80
2016,08,04,12,08,19.90
2016,08,04,12,09,20.00
2016,08,04,12,10,20.10
2016,08,04,12,11,20.20
2016,08,04,12,12,20.20
2016,08,04,12,13,20.30
2016,08,04,12,14,20.30
2016,08,04,12,15,20.30
2016,08,04,12,16,20.40
2016,08,04,12,17,20.50
2016,08,04,12,18,20.50
2016,08,04,12,19,20.60
2016,08,04,12,20,20.70
2016,08,04,12,21,20.70
2016,08,04,12,22,20.70
2016,08,04,12,23,20.70
2016,08,04,12,24,20.60
2016,08,04,12,25,20.60
2016,08,04,12,26,20.60
2016,08,04,12,27,20.60
2016,08,04,12,28,20.50
2016,08,04,12,29,20.40
2016,08,04,12,30,20.30
2016,08,04,12,31,20.30
2016,08,04,12,32,20.30
2016,08,04,12,33,20.30
2016,08,04,12,34,20.30
2016,08,04,12,35,20.30
2016,08,04,12,36,20.20
2016,08,04,12,37,20.10
2016,08,04,12,38,20.10
2016,08,04,12,39,20.10
2016,08,04,12,40,20.20
2016,08,04,12,41,20.30
2016,08,04,12,42,20.50
2016,08,04,12,43,20.60
2016,08,04,12,44,20.70
2016,08,04,12,45,20.70
2016,08,04,12,46,20.70
2016,08,04,12,47,20.70
2016,08,04,12,48,20.60
2016,08,04,12,49,20.60
2016,08,04,12,50,20.50
2016,08,04,12,51,20.40
2016,08,04,12,52,20.30
2016,08,04,12,53,20.30
2016,08,04,12,54,20.30
2016,08,04,12,55,20.30
2016,08,04,12,56,20.30
2016,08,04,12,57,20.40
2016,08,04,12,58,20.50
2016,08,04,12,59,20.70
2016,08,04,13,00,20.80
2016,08,04,13,01,20.90
2016,08,04,13,02,20.90
2016,08,04,13,03,20.90
2016,08,04,13,04,20.80
2016,08,04,13,05,20.80
2016,08,04,13,06,20.70
2016,08,04,13,07,20.80
2016,08,04,13,08,20.80
2016,08,04,13,09,20.80
2016,08,04,13,10,20.80
2016,08,04,13,11,20.70
2016,08,04,13,12,20.70
2016,08,04,13,13,20.70
2016,08,04,13,14,20.70
2016,08,04,13,15,20.70
2016,08,04,13,16,20.70
2016,08,04,13,17,20.80
2016,08,04,13,18,20.80
2016,08,04,13,19,20.80
2016,08,04,13,20,20.80
2016,08,04,13,21,20.80
2016,08,04,13,22,20.90
2016,08,04,13,23,20.90
2016,08,04,13,24,21.00
2016,08,04,13,25,21.10
2016,08,04,13,26,21.20
2016,08,04,13,27,21.30
2016,08,04,13,28,21.30
2016,08,04,13,29,21.30
2016,08,04,13,30,21.30
2016,08,04,13,31,21.30
2016,08,04,13,32,21.30
2016,08,04,13,33,21.20
2016,08,04,13,34,21.10
2016,08,04,13,35,21.10
2016,08,04,13,36,21.10
2016,08,04,13,37,21.10
2016,08,04,13,38,21.20
2016,08,04,13,39,21.20
2016,08,04,13,40,21.20
2016,08,04,13,41,21.20
2016,08,04,13,42,21.20
2016,08,04,13,43,21.10
2016,08,04,13,44,21.10
2016,08,04,13,45,21.00
2016,08,04,13,46,21.00
2016,08,04,13,47,21.00
2016,08,04,13,48,21.00
2016,08,04,13,49,21.10
2016,08,04,13,50,21.10
2016,08,04,13,51,21.10
2016,08,04,13,52,21.20
2016,08,04,13,53,21.30
2016,08,04,13,54,21.30
2016,08,04,13,55,21.30
2016,08,04,13,56,21.20
2016,08,04,13,57,21.20
2016,08,04,13,58,21.20
2016,08,04,13,59,21.20
2016,08,04,14,00,21.20
2016,08,04,14,01,21.10
2016,08,04,14,02,21.00
2016,08,04,14,03,21.00
2016,08,04,14,04,20.90
2016,08,04,14,05,20.90
2016,08,04,14,06,20.90
2016,08,04,14,07,20.90
2016,08,04,14,08,20.90
2016,08,04,14,09,20.90
2016,08,04,14,10,20.90
2016,08,04,14,11,21.00
2016,08,04,14,12,21.10
2016,08,04,14,13,21.20
2016,08,04,14,14,21.40
2016,08,04,14,15,21.50
2016,08,04,14,16,21.50
2016,08,04,14,17,21.50
2016,08,04,14,18,21.50
2016,08,04,14,19,21.50
2016,08,04,14,20,21.40
2016,08,04,14,21,21.40
2016,08,04,14,22,21.30
2016,08,04,14,23,21.40
2016,08,04,14,24,21.40
2016,08,04,14,25,21.40
2016,08,04,14,26,21.50
2016,08,04,14,27,21.50
2016,08,04,14,28,21.50
2016,08,04,14,29,21.40
2016,08,04,14,30,21.30
2016,08,04,14,31,21.30
2016,08,04,14,32,21.30
2016,08,04,14,33,21.30
2016,08,04,14,34,21.40
2016,08,04,14,35,21.50
2016,08,04,14,36,21.60
2016,08,04,14,37,21.60
2016,08,04,14,38,21.60
2016,08,04,14,39,21.70
2016,08,04,14,40,21.80
2016,08,04,14,41,21.90
2016,08,04,14,42,22.00
2016,08,04,14,43,22.10
2016,08,04,14,44,22.10
2016,08,04,14,45,22.20
2016,08,04,14,46,22.20
2016,08,04,14,47,22.30
2016,08,04,14,48,22.30
2016,08,04,14,49,22.30
2016,08,04,14,50,22.20
2016,08,04,14,51,22.20
2016,08,04,14,52,22.20
2016,08,04,14,53,22.10
2016,08,04,14,54,22.00
2016,08,04,14,55,21.90
2016,08,04,14,56,21.80
2016,08,04,14,57,21.70
2016,08,04,14,58,21.60
2016,08,04,14,59,21.50
2016,08,04,15,00,21.40
2016,08,04,15,01,21.40
2016,08,04,15,02,21.40
2016,08,04,15,03,21.40
2016,08,04,15,04,21.30
2016,08,04,15,05,21.30
2016,08,04,15,06,21.30
2016,08,04,15,07,21.40
2016,08,04,15,08,21.40
2016,08,04,15,09,21.50
2016,08,04,15,10,21.50
2016,08,04,15,11,21.50
2016,08,04,15,12,21.60
2016,08,04,15,13,21.60
2016,08,04,15,14,21.70
2016,08,04,15,15,21.80
2016,08,04,15,16,21.90
2016,08,04,15,17,21.90
2016,08,04,15,18,21.80
2016,08,04,15,19,21.80
2016,08,04,15,20,21.80
2016,08,04,15,21,21.80
2016,08,04,15,22,21.70
2016,08,04,15,23,21.70
2016,08,04,15,24,21.70
2016,08,04,15,25,21.70
2016,08,04,15,26,21.70
2016,08,04,15,27,21.70
2016,08,04,15,28,21.70
2016,08,04,15,29,21.70
2016,08,04,15,30,21.70
2016,08,04,15,31,21.70
2016,08,04,15,32,21.60
2016,08,04,15,33,21.60
2016,08,04,15,34,21.60
2016,08,04,15,35,21.60
2016,08,04,15,36,21.60
2016,08,04,15,37,21.60
2016,08,04,15,38,21.70
2016,08,04,15,39,21.70
2016,08,04,15,40,21.70
2016,08,04,15,41,21.70
2016,08,04,15,42,21.80
2016,08,04,15,43,21.70
2016,08,04,15,44,21.70
2016,08,04,15,45,21.80
2016,08,04,15,46,21.80
2016,08,04,15,47,21.80
2016,08,04,15,48,21.80
2016,08,04,15,49,21.80
2016,08,04,15,50,21.80
2016,08,04,15,51,21.90
2016,08,04,15,52,22.00
2016,08,04,15,53,22.00
2016,08,04,15,54,22.00
2016,08,04,15,55,22.00
2016,08,04,15,56,22.10
2016,08,04,15,57,22.10
2016,08,04,15,58,22.10
2016,08,04,15,59,22.20
2016,08,04,16,00,22.30
2016,08,04,16,01,22.40
2016,08,04,16,02,22.50
2016,08,04,16,03,22.70
2016,08,04,16,04,22.70
2016,08,04,16,05,22.80
2016,08,04,16,06,22.70
2016,08,04,16,07,22.60
2016,08,04,16,08,22.50
2016,08,04,16,09,22.50
2016,08,04,16,10,22.40
2016,08,04,16,11,22.30
2016,08,04,16,12,22.20
2016,08,04,16,13,22.10
2016,08,04,16,14,22.10
2016,08,04,16,15,22.10
2016,08,04,16,16,22.10
2016,08,04,16,17,22.20
2016,08,04,16,18,22.20
2016,08,04,16,19,22.30
2016,08,04,16,20,22.40
2016,08,04,16,21,22.50
2016,08,04,16,22,22.60
2016,08,04,16,23,22.60
2016,08,04,16,24,22.60
2016,08,04,16,25,22.50
2016,08,04,16,26,22.40
2016,08,04,16,27,22.30
2016,08,04,16,28,22.30
2016,08,04,16,29,22.20
2016,08,04,16,30,22.10
2016,08,04,16,31,22.10
2016,08,04,16,32,22.20
2016,08,04,16,33,22.10
2016,08,04,16,34,22.10
2016,08,04,16,35,22.10
2016,08,04,16,36,22.10
2016,08,04,16,37,22.20
2016,08,04,16,38,22.20
2016,08,04,16,39,22.20
2016,08,04,16,40,22.20
2016,08,04,16,41,22.30
2016,08,04,16,42,22.30
2016,08,04,16,43,22.40
2016,08,04,16,44,22.40
2016,08,04,16,45,22.40
2016,08,04,16,46,22.40
2016,08,04,16,47,22.40
2016,08,04,16,48,22.40
2016,08,04,16,49,22.40
2016,08,04,16,50,22.40
2016,08,04,16,51,22.40
2016,08,04,16,52,22.40
2016,08,04,16,53,22.40
2016,08,04,16,54,22.40
2016,08,04,16,55,22.40
2016,08,04,16,56,22.40
2016,08,04,16,57,22.40
2016,08,04,16,58,22.40
2016,08,04,16,59,22.40
2016,08,04,17,00,22.40
2016,08,04,17,01,22.40
2016,08,04,17,02,22.40
2016,08,04,17,03,22.30
2016,08,04,17,04,22.30
2016,08,04,17,05,22.30
2016,08,04,17,06,22.30
2016,08,04,17,07,22.30
2016,08,04,17,08,22.30
2016,08,04,17,09,22.40
2016,08,04,17,10,22.40
2016,08,04,17,11,22.40
2016,08,04,17,12,22.40
2016,08,04,17,13,22.40
2016,08,04,17,14,22.40
2016,08,04,17,15,22.30
2016,08,04,17,16,22.30
2016,08,04,17,17,22.30
2016,08,04,17,18,22.30
2016,08,04,17,19,22.30